[[{"header":{"parameterUnit":"m.s-1","parameterCategory":1,"la1":30.2991,"la2":30.254,"lo1":-89.0895,"lo2":-89.0444,"dy":0.0017,"dx":0.0017,"nx":28,"ny":28,"refTime":"2024-03-01T03:00:00:Z","depth":0,"parameterNumber":2,"parameterNumberName":"U-component_of_WINDS"},"data":[0,0,0,0,0,0,0,0,0,0,0,0,0,0,0,0,0,0,0,0,0,0,0,0,0,0,0,0,0,0,0,0,0,0,0,0,0,0,0,0,0,0,0,0,0,0,0,0,0,0,0,0,0,0,0,0,0,0,-5.8588,-5.859,0,-5.8776,-5.8779,-5.8781,-5.8677,-5.8672,-5.8667,-5.8662,-5.8856,-5.8865,-5.8875,0,0,0,0,0,0,0,0,0,0,0,0,0,-5.8139,-5.8148,-5.8588,-5.859,-5.8593,-5.8776,-5.8779,-5.8781,-5.8678,-5.8672,-5.8666,-5.866,-5.8852,-5.8864,-5.8876,0,0,0,0,0,0,0,0,0,0,0,0,0,-5.8331,-5.815,-5.8588,-5.8564,-5.8563,-5.8776,-5.8779,-5.8782,-5.868,-5.8672,-5.8664,-5.8657,-5.8848,-5.8863,-5.8878,-5.9125,0,0,-5.8923,-5.893,0,0,0,0,0,0,0,0,-5.832,-5.8348,-5.8565,-5.8566,-5.8566,-5.8695,-5.8691,-5.8897,-5.8682,-5.8635,-5.8662,-5.8653,-5.8809,-5.8826,-5.8879,-5.9134,-5.9142,-5.8925,-5.8934,-5.894,-5.8944,0,0,0,0,0,0,0,-5.8307,-5.8339,-5.8663,-5.8568,-5.8569,-5.8543,-5.8562,-5.873,-5.8763,-5.8639,-5.8632,-5.8655,-5.8807,-5.8864,-5.8882,-5.9145,-5.8924,-5.8937,-5.8947,-5.8952,-5.9611,-5.9619,0,0,0,0,0,0,-5.8295,-5.8329,-5.8657,-5.8668,-5.8421,-5.8557,-5.8578,-5.8662,-5.8761,-5.8769,-5.8662,-5.865,-5.8843,-5.8865,-5.8889,-5.9184,-5.894,-5.8954,-5.8962,-5.9602,-5.9613,-5.9622,0,0,0,0,0,0,-5.8286,-5.8326,-5.8649,-5.8497,-5.8536,-5.8573,-5.8668,-5.8669,-5.8726,-5.8778,-5.8784,-5.8714,-5.8838,-5.8868,-5.9066,-5.9189,-5.8961,-5.8974,-5.9592,-5.9605,-5.9617,-5.9776,0,0,0,0,0,0,-5.8274,-5.8323,-5.8418,-5.85,-5.8544,-5.8824,-5.8675,-5.8679,-5.8752,-5.8739,-5.8829,-5.8836,-5.8834,-5.9045,-5.9081,-5.9205,-5.8986,-5.9581,-5.9598,-5.9613,-5.976,-5.9793,-5.9821,0,0,0,0,0,-5.8258,-5.8455,-5.8423,-5.8463,-5.8663,-5.8831,-5.8857,-5.885,-5.8763,-5.8858,-5.8891,-5.8834,-5.917,-5.9066,-5.9106,-5.9237,-5.9574,-5.9593,-5.9612,-5.9746,-5.9786,-5.982,0,0,0,0,0,0,-5.8387,-5.8465,-5.8431,-5.866,-5.874,-5.8814,-5.8933,-5.8892,-5.8999,-5.8981,-5.8968,-5.8989,-5.9196,-5.9236,-5.9119,-5.948,-5.9358,-5.9386,-5.9447,-5.9485,-5.9515,-5.95,-5.8998,0,0,0,0,0,-5.8442,-5.8572,-5.8633,-5.883,-5.8872,-5.8896,-5.8969,-5.8957,-5.9039,-5.9072,-5.912,-5.9202,-5.9325,-5.9407,-5.9524,-5.9765,-5.9783,-5.9875,-5.9905,-5.993,-5.9954,-6.0084,-6.0125,-5.9685,-5.9685,-5.9684,0,0,-5.8557,-5.8616,-5.8699,-5.8858,-5.8918,-5.9052,-5.8925,-5.9073,-5.9173,-5.9094,-5.9284,-5.9323,-5.9413,-5.9634,-5.9734,-5.9674,-6.008,-5.9954,-5.9974,-5.9985,-6.0108,-6.0149,-6.0186,-5.9698,-5.9696,-5.9693,0,0,-5.8835,-5.8894,-5.9063,-5.9126,-5.9219,-5.9233,-5.9274,-5.9355,-5.9377,-5.9567,-5.9511,-5.9629,-5.9843,-5.991,-5.9971,-6.0274,-6.0225,-6.0313,-6.0471,-6.0597,-6.0632,-6.0663,-6.077,-6.0809,-6.0337,-6.0338,-6.0338,0,-5.8967,-5.9167,-5.9156,-5.9308,-5.9379,-5.9314,-5.9485,-5.9546,-5.9673,-5.9723,-5.9655,-5.9921,-5.9977,-6.0212,-6.0286,-6.0339,-6.0384,-6.0302,-6.0628,-6.0659,-6.0687,-6.0789,-6.083,-6.0347,-6.0346,-6.0345,-6.0344,0,-5.9324,-5.9464,-5.959,-5.9713,-5.9798,-5.9959,-5.9971,-6.0059,-6.0039,-6.0061,-6.0255,-6.0321,-6.0449,-6.0504,-6.0486,-6.0737,-6.0696,-6.0629,-6.0505,-6.0739,-6.0835,-6.0874,-6.0362,-6.0358,-6.0355,-6.0353,0,0,-5.9689,-5.9803,-5.9849,-5.9904,-6.0001,-6.0109,-6.0267,-6.0392,-6.0467,-6.0556,-6.0688,-6.087,-6.0807,-6.0878,-6.0867,-6.0978,-6.1212,-6.0896,-6.0898,-6.0952,-6.1491,-6.1541,-6.1587,-6.1181,-6.1188,-6.1194,-6.1483,0,-5.9973,-6.0248,-6.0242,-6.0498,-6.0626,-6.0566,-6.0703,-6.0778,-6.0803,-6.0915,-6.0942,-6.1071,-6.0979,-6.1021,-6.1128,-6.1161,-6.132,-6.114,-6.1302,-6.1308,-6.1281,-6.1637,-6.169,-6.196,-6.1521,-6.1527,-6.1532,0,-6.0341,-6.0442,-6.071,-6.0788,-6.0841,-6.0965,-6.1079,-6.1187,-6.127,-6.128,-6.1359,-6.133,-6.149,-6.1363,-6.1582,-6.146,-6.1526,-6.1552,-6.1562,-6.1576,-6.1434,-6.166,-6.2046,-6.2086,-6.1591,-6.1586,-6.1582,0,-6.0578,-6.0782,-6.0968,-6.1017,-6.1112,-6.12,-6.1244,-6.1319,-6.1395,-6.1494,-6.1543,-6.1661,-6.1725,-6.1816,-6.182,-6.1727,-6.2041,-6.1915,-6.2054,-6.2054,-6.2122,-6.2118,-6.2524,-6.2167,-6.2166,-6.2165,-6.2164,0,-6.0895,-6.1062,-6.1076,-6.1191,-6.1376,-6.1367,-6.155,-6.1585,-6.1652,-6.1773,-6.1728,-6.1842,-6.184,-6.1956,-6.1961,-6.2141,-6.2171,-6.2183,-6.2182,-6.2187,-6.2185,-6.2229,-6.221,-6.2176,-6.2174,-6.2171,-6.217,0,-6.1192,-6.1208,-6.1408,-6.1481,-6.1503,-6.1636,-6.1699,-6.1808,-6.1828,-6.1981,-6.2017,-6.2049,-6.2183,-6.2196,-6.2352,-6.2355,-6.2573,-6.2552,-6.2545,-6.2541,-6.2679,-6.2665,-6.3127,-6.3186,-6.2792,-6.2795,-6.2798,0,-6.1393,-6.1519,-6.1606,-6.1683,-6.1732,-6.1857,-6.1934,-6.193,-6.2011,-6.2115,-6.2211,-6.2341,-6.2444,-6.2662,-6.2699,-6.2818,-6.2799,-6.2953,-6.2817,-6.2817,-6.28,-6.2792,-6.2804,-6.2979,-6.2983,-6.2987,-6.299,0,-6.1747,-6.1748,-6.186,-6.1976,-6.2068,-6.2158,-6.2243,-6.2309,-6.2315,-6.2409,-6.2545,-6.2626,-6.2785,-6.2914,-6.3031,-6.3075,-6.3034,-6.3032,-6.307,-6.3076,-6.3066,-6.3072,-6.2616,-6.3021,-6.3018,-6.3016,-6.3014,-6.3013,-6.2001,-6.211,-6.2188,-6.2314,-6.2377,-6.2457,-6.2563,-6.2596,-6.2709,-6.2838,-6.2829,-6.298,-6.3059,-6.3211,-6.3265,-6.3382,-6.3331,-6.3387,-6.3401,-6.3414,-6.3428,-6.3048,-6.3404,-6.3403,-6.3402,-6.3401,-6.3401,0,-6.2351,-6.2398,-6.2514,-6.2633,-6.2733,-6.2685,-6.2776,-6.2862,-6.2995,-6.3072,-6.3175,-6.3331,-6.3456,-6.3503,-6.3625,-6.371,-6.3694,-6.3742,-6.3735,-6.3746,-6.3467,-6.3422,-6.3753,-6.3753,-6.3753,-6.3753,-6.3753,-6.3753,-6.2545,-6.2727,-6.2738,-6.295,-6.2996,-6.3143,-6.3199,-6.3272,-6.3334,-6.351,-6.3614,-6.3643,-6.3709,-6.3835,-6.3947,-6.3958,-6.4004,-6.4061,-6.4063,-6.3802,-6.3766,-6.3732,-6.3689,-6.4071,-6.4072,-6.4332,-6.4334,-6.4336]},{"header":{"parameterUnit":"m.s-1","parameterCategory":1,"la1":30.2991,"la2":30.254,"lo1":-89.0895,"lo2":-89.0444,"dy":0.0017,"dx":0.0017,"nx":28,"ny":28,"refTime":"2024-03-01T03:00:00:Z","depth":0,"parameterNumber":3,"parameterNumberName":"V-component_of_WINDS"},"data":[0,0,0,0,0,0,0,0,0,0,0,0,0,0,0,0,0,0,0,0,0,0,0,0,0,0,0,0,0,0,0,0,0,0,0,0,0,0,0,0,0,0,0,0,0,0,0,0,0,0,0,0,0,0,0,0,0,0,0.0667,0.0667,0,0.0643,0.0643,0.0643,0.0615,0.0615,0.0614,0.0614,0.0589,0.0589,0.0589,0,0,0,0,0,0,0,0,0,0,0,0,0,0.069,0.069,0.0667,0.0667,0.0667,0.0643,0.0643,0.0643,0.0615,0.0615,0.0614,0.0614,0.0589,0.0589,0.0589,0,0,0,0,0,0,0,0,0,0,0,0,0,0.0675,0.069,0.0667,0.065,0.0648,0.0643,0.0643,0.0643,0.0615,0.0615,0.0614,0.0613,0.0589,0.0589,0.0589,0.0599,0,0,0.0587,0.0587,0,0,0,0,0,0,0,0,0.0675,0.0674,0.0653,0.0651,0.0649,0.0632,0.0642,0.0628,0.0615,0.0628,0.0614,0.0613,0.0604,0.0602,0.0599,0.0597,0.0596,0.0587,0.0587,0.0587,0.0587,0,0,0,0,0,0,0,0.0677,0.0675,0.0658,0.0653,0.0651,0.0644,0.0641,0.0639,0.062,0.0627,0.0625,0.0622,0.0603,0.0599,0.0598,0.0596,0.0587,0.0587,0.0587,0.0587,0.0603,0.0604,0,0,0,0,0,0,0.068,0.0676,0.0659,0.0657,0.0661,0.0644,0.0641,0.0638,0.062,0.0616,0.0623,0.0621,0.06,0.0599,0.0597,0.0609,0.0587,0.0587,0.0586,0.0602,0.0603,0.0604,0,0,0,0,0,0,0.0681,0.0679,0.066,0.0666,0.0663,0.0644,0.0641,0.0638,0.0635,0.0617,0.0613,0.0623,0.06,0.0598,0.0599,0.0607,0.0586,0.0586,0.0601,0.0602,0.0603,0.0631,0,0,0,0,0,0,0.0682,0.0679,0.0683,0.0666,0.0663,0.0661,0.0642,0.0638,0.0634,0.0631,0.0616,0.0613,0.0599,0.06,0.0598,0.0606,0.0586,0.0601,0.0602,0.0603,0.0629,0.0633,0.0636,0,0,0,0,0,0.0682,0.0691,0.0683,0.0681,0.0666,0.0662,0.066,0.0644,0.0635,0.0638,0.0627,0.0613,0.0607,0.06,0.0598,0.0606,0.06,0.0602,0.0603,0.0628,0.0632,0.0636,0,0,0,0,0,0,0.0708,0.0688,0.0679,0.0683,0.0674,0.0657,0.0661,0.0649,0.0643,0.0641,0.0622,0.0619,0.0622,0.0614,0.0607,0.0616,0.0601,0.0603,0.0621,0.0625,0.0628,0.063,0.0585,0,0,0,0,0,0.0715,0.0712,0.0695,0.07,0.0696,0.0679,0.0677,0.0666,0.0656,0.0652,0.0641,0.0632,0.0628,0.0626,0.0621,0.0628,0.0625,0.0633,0.0636,0.0639,0.064,0.0645,0.0648,0.0609,0.0609,0.0609,0,0,0.0727,0.0716,0.0716,0.0705,0.0697,0.0696,0.0676,0.0675,0.0674,0.0652,0.0652,0.0644,0.0633,0.0638,0.0639,0.0631,0.0651,0.0641,0.0643,0.0643,0.0647,0.065,0.0654,0.061,0.061,0.0609,0,0,0.0749,0.0741,0.0744,0.0737,0.0725,0.0715,0.0716,0.0701,0.0694,0.0694,0.0678,0.0677,0.067,0.0663,0.0659,0.0681,0.0668,0.068,0.0697,0.0701,0.0705,0.0707,0.0716,0.0719,0.0681,0.0681,0.0681,0,0.0766,0.0764,0.0747,0.0748,0.0744,0.0724,0.0728,0.0722,0.0709,0.0707,0.0699,0.0691,0.0682,0.0685,0.0691,0.0688,0.0689,0.0681,0.0705,0.0708,0.071,0.0718,0.0721,0.0683,0.0683,0.0683,0.0682,0,0.0786,0.0784,0.0788,0.0777,0.0774,0.0776,0.0761,0.0759,0.0749,0.0739,0.074,0.0729,0.0723,0.0722,0.0712,0.0724,0.072,0.0709,0.0694,0.0716,0.0723,0.0726,0.0685,0.0684,0.0684,0.0684,0,0,0.0823,0.0804,0.0806,0.0801,0.0788,0.0786,0.0788,0.0782,0.0782,0.0774,0.0776,0.0771,0.0761,0.0756,0.0745,0.0749,0.0768,0.0737,0.0737,0.0744,0.0782,0.0791,0.0795,0.076,0.076,0.0761,0.0783,0,0.0843,0.0845,0.0831,0.0836,0.0835,0.0817,0.0819,0.0812,0.0803,0.0801,0.0791,0.0789,0.0775,0.0772,0.0775,0.0765,0.0776,0.0763,0.0762,0.0762,0.0765,0.0798,0.0807,0.0829,0.0786,0.0786,0.0787,0,0.0866,0.0861,0.0867,0.0855,0.0854,0.0855,0.0849,0.0847,0.0839,0.0832,0.0828,0.0815,0.0817,0.0803,0.0805,0.0797,0.0796,0.0791,0.0792,0.0791,0.0776,0.0799,0.0835,0.0839,0.0791,0.0791,0.079,0,0.0894,0.0888,0.0891,0.0888,0.0873,0.0875,0.0869,0.086,0.0858,0.0852,0.0851,0.0846,0.0843,0.084,0.0827,0.0818,0.0831,0.0816,0.0826,0.0827,0.0829,0.083,0.0867,0.0828,0.0828,0.0828,0.0828,0,0.0918,0.0922,0.0903,0.0905,0.091,0.0894,0.09,0.0892,0.0884,0.0885,0.0869,0.087,0.0852,0.0851,0.0841,0.0845,0.0844,0.0839,0.0836,0.0841,0.0841,0.0839,0.0838,0.0829,0.0829,0.0829,0.0828,0,0.0949,0.0936,0.0939,0.0925,0.0922,0.0926,0.0915,0.0917,0.0907,0.0908,0.0908,0.0893,0.0891,0.0878,0.0873,0.0866,0.0875,0.0869,0.0878,0.0876,0.0887,0.0887,0.0925,0.0929,0.0888,0.0888,0.0888,0,0.0966,0.0969,0.0956,0.0956,0.0951,0.0949,0.0947,0.0932,0.0931,0.0922,0.0925,0.0922,0.0919,0.0917,0.0907,0.0903,0.0897,0.0911,0.0897,0.0901,0.0898,0.0898,0.0899,0.0914,0.0915,0.0915,0.0915,0,0.0996,0.099,0.0988,0.0984,0.0982,0.0977,0.0972,0.0973,0.0956,0.0956,0.0954,0.0952,0.0947,0.0945,0.094,0.0934,0.0922,0.092,0.0922,0.0927,0.0932,0.093,0.0886,0.0919,0.0919,0.0919,0.0918,0.0918,0.1021,0.1023,0.1015,0.1013,0.1008,0.1004,0.1005,0.0997,0.0995,0.099,0.0982,0.0982,0.0974,0.0966,0.0962,0.0962,0.0955,0.0958,0.0959,0.096,0.0963,0.0932,0.0961,0.0961,0.0961,0.096,0.096,0,0.1052,0.1046,0.1044,0.1038,0.1037,0.1026,0.102,0.102,0.102,0.1014,0.1012,0.1011,0.1009,0.0998,0.0995,0.0998,0.0992,0.0997,0.0997,0.0996,0.0969,0.0967,0.1002,0.1002,0.1002,0.1002,0.1002,0.1002,0.1067,0.1071,0.1064,0.1066,0.106,0.106,0.1058,0.1054,0.105,0.1049,0.1048,0.1041,0.1033,0.103,0.1028,0.1025,0.1025,0.1032,0.1028,0.1002,0.0998,0.0994,0.0993,0.1032,0.1032,0.1055,0.1055,0.1055]}]]